Delta Virtual Airport Information Service

Tokyo Narita International Airport

ICAO: RJAA Country: Japan
Latitude: 35.7647 Longitude: 140.386
Latest Arrival : DAL181 (1A) (PHNL-RJAA) Latest Departure : DAC2 (RJAA-ZGSZ)


WX CaptureLIVE
Data provided by noaa.gov | Fetched at 03:18:19

METAR : RJAA 300800Z 04008KT 010V070 9999 FEW025 BKN/// 20/16 Q1006 NOSIG RMK 2CU025 A2973

TAF : RJAA 300505Z 3006/0112 04006KT 9999 FEW020 TEMPO 3018/3021 4000 -RA BR TEMPO 3021/0106 3000 RA BR FEW003 BKN005


Runway Data for RJAA
Data provided by openaviationdata.com

Runway ID Mag Var Hdg Length Elevation Surface ILS Freq ILS Id ILS Slope
16L -7 156° 8202 ft 135 ft Asphalt 110.7 ITM 3
16R -7 156° 13132 ft 135 ft Asphalt 111.5 IKF 3
34L -7 336° 13132 ft 135 ft Asphalt 111.9 IYQ 3
34R -7 336° 8202 ft 135 ft Asphalt 110.9 ITJ 3

Tokyo Narita International Airport, Japan
Use only for reference purposes



Not for navigational purposes.